Dewar Lakes, Nunavut

9:26 PM EDT on March 29, 2017 (GMT -0400)
Dewar Lakes

Weather History for CWUW - May, 2013

Change the Weather History Date:

Tuesday, May 21, 2013

  Actual Average Record
Temperature  
Mean Temperature 10 °F -  
Max Temperature 14 °F 31 °F 37 °F (2008)
Min Temperature 6 °F 21 °F 3 °F (2000)
Degree Days  
Heating Degree Days 55    
Moisture  
Dew Point -    
Average Humidity    
Maximum Humidity    
Minimum Humidity    
Precipitation  
Precipitation 0.00 in 0.03 in - ()
Sea Level Pressure  
Sea Level Pressure 30.23 in    
Wind  
Wind Speed 23 mph ()    
Max Wind Speed 32 mph    
Max Gust Speed 36 mph    
Visibility 2.0 miles    
Events      
Averages and records for this station are not official NWS values.
T = Trace of Precipitation, MM = Missing Value Source: Averaged Metar Reports

Daily Weather History Graph

Daily Weather History Graph

Search for Another Location

Airport or City:

Trip Planner

Search our weather history database for the weather conditions in past years. The results will help you decide how hot, cold, wet, or windy it might be!

Date:

Astronomy

May. 21, 2013 Rise Set
Actual Time 1:21 AM EDT 12:17 AM EDT
Civil Twilight Sun does not rise Sun does not rise
Nautical Twilight Sun does not rise Sun does not rise
Astronomical Twilight Sun does not rise Sun does not rise
Moon 5:17 PM EDT (5/21) 2:06 AM EDT (5/21)
Length of Visible Light 24h 00m
Length of Day
22h 55m
Waxing Gibbous, 84% of the Moon is Illuminated
May 21
Waxing Gibbous
May 25
Full
May 31
Last Quarter
Jun 8
New
Jun 16
First Quarter

Hourly Weather History & Observations

Time (EDT) Temp. Windchill Dew Point Humidity Pressure Visibility Wind Dir Wind Speed Gust Speed Precip Events Conditions
12:00 AM 8.6 °F -13.4 °F - N/A% 30.31 in 3.0 mi East 27.6 mph - N/A   Partly Cloudy
12:01 AM 8.6 °F -13.8 °F - N/A% 30.13 in 3.0 mi East 28.8 mph - N/A   Partly Cloudy
12:11 AM 8.6 °F -11.4 °F - N/A% 30.14 in 4.0 mi East 21.9 mph 29.9 mph N/A   Mostly Cloudy
12:13 AM 8.6 °F -11.0 °F - N/A% 30.14 in 3.0 mi East 20.7 mph 29.9 mph N/A   Overcast
12:16 AM 8.6 °F -12.7 °F - N/A% 30.15 in 2.2 mi ENE 25.3 mph - N/A   Partly Cloudy
12:18 AM 8.6 °F -11.4 °F - N/A% 30.14 in 2.1 mi ENE 21.9 mph 27.6 mph N/A   Overcast
12:21 AM 8.6 °F -11.9 °F - N/A% 30.14 in 2.0 mi ENE 23.0 mph - N/A   Overcast
12:24 AM 8.6 °F -13.1 °F - N/A% 30.14 in 2.1 mi ENE 26.5 mph - N/A   Mostly Cloudy
12:36 AM 8.6 °F -12.3 °F - N/A% 30.14 in 3.0 mi East 24.2 mph - N/A   Overcast
12:38 AM 8.6 °F -13.1 °F - N/A% 30.14 in 3.5 mi ENE 26.5 mph - N/A   Overcast
12:40 AM 8.6 °F -11.9 °F - N/A% 30.14 in 2.8 mi ENE 23.0 mph - N/A   Overcast
12:47 AM 8.6 °F -13.1 °F - N/A% 30.13 in 1.2 mi East 26.5 mph - N/A   Clear
12:53 AM 8.6 °F -11.9 °F - N/A% 30.13 in 1.0 mi East 23.0 mph - N/A   Clear
12:56 AM 8.6 °F -11.9 °F - N/A% 30.13 in 0.6 mi East 23.0 mph 28.8 mph N/A   Clear
1:00 AM 8.6 °F -13.1 °F - N/A% 30.30 in 0.5 mi East 26.5 mph - N/A   Clear
1:02 AM 8.6 °F -13.4 °F - N/A% 30.13 in 0.4 mi East 27.6 mph - N/A   Clear
1:41 AM 8.6 °F -13.8 °F - N/A% 30.12 in 0.4 mi East 28.8 mph - N/A   Scattered Clouds
1:45 AM 8.6 °F -14.1 °F - N/A% 30.12 in 0.4 mi East 29.9 mph - N/A   Clear
1:59 AM 8.6 °F -12.7 °F - N/A% 30.14 in 0.8 mi ENE 25.3 mph 32.2 mph N/A   Clear
2:00 AM 8 °F - - % 30.32 in 1 mi ENE 26.5 mph - -  
2:00 AM 8.6 °F -11.4 °F - N/A% 30.32 in 0.8 mi ENE 21.9 mph 32.2 mph N/A   Clear
2:07 AM 6.8 °F -15.5 °F - N/A% 30.14 in 1.5 mi ENE 26.5 mph - N/A   Clear
3:00 AM 8.6 °F -14.1 °F - N/A% 30.31 in 6.0 mi ENE 29.9 mph - N/A   Clear
3:37 AM 8.6 °F -12.3 °F - N/A% 30.14 in 5.0 mi ENE 24.2 mph - N/A   Mostly Cloudy
3:42 AM 8.6 °F -12.7 °F - N/A% 30.14 in 3.0 mi ENE 25.3 mph - N/A   Overcast
3:55 AM 8.6 °F -13.1 °F - N/A% 30.14 in 2.5 mi ENE 26.5 mph - N/A   Mostly Cloudy
3:59 AM 8.6 °F -11.9 °F - N/A% 30.14 in 2.6 mi ENE 23.0 mph 28.8 mph N/A   Scattered Clouds
4:00 AM 8.6 °F -11.9 °F - N/A% 30.32 in 2.6 mi ENE 23.0 mph 28.8 mph N/A   Scattered Clouds
4:02 AM 8.6 °F - - N/A% 30.14 in 2.5 mi North - - N/A   Mostly Cloudy
4:11 AM 8.6 °F -12.3 °F - N/A% 30.15 in 1.8 mi ENE 24.2 mph - N/A   Overcast
4:15 AM 8.6 °F -12.3 °F - N/A% 30.14 in 1.5 mi ENE 24.2 mph - N/A   Overcast
4:17 AM 8.6 °F -11.9 °F - N/A% 30.15 in 1.4 mi ENE 23.0 mph - N/A   Overcast
4:21 AM 8.6 °F -10.0 °F - N/A% 30.15 in 1.1 mi ENE 18.4 mph 26.5 mph N/A   Overcast
4:32 AM 8.6 °F -10.0 °F - N/A% 30.15 in 1.4 mi ENE 18.4 mph - N/A   Overcast
4:34 AM 8.6 °F -8.9 °F - N/A% 30.15 in 1.4 mi ENE 16.1 mph 21.9 mph N/A   Overcast
4:36 AM 8.6 °F -9.5 °F - N/A% 30.15 in 1.4 mi ENE 17.3 mph - N/A   Mostly Cloudy
4:38 AM 8.6 °F -8.9 °F - N/A% 30.15 in 1.2 mi ENE 16.1 mph 21.9 mph N/A   Overcast
4:41 AM 8.6 °F -11.4 °F - N/A% 30.15 in 1.1 mi ENE 21.9 mph - N/A   Overcast
4:47 AM 8.6 °F -11.0 °F - N/A% 30.15 in 1.0 mi ENE 20.7 mph - N/A   Overcast
4:50 AM 8.6 °F -9.5 °F - N/A% 30.15 in 1.0 mi ENE 17.3 mph 23.0 mph N/A   Mostly Cloudy
5:00 AM 9 °F - - % 30.32 in 1 mi ENE 18.4 mph - -   Overcast
5:00 AM 8.6 °F -11.9 °F - N/A% 30.32 in 0.8 mi ENE 23.0 mph - N/A   Overcast
5:13 AM 8.6 °F -10.0 °F - N/A% 30.14 in 0.6 mi ENE 18.4 mph - N/A   Clear
5:31 AM 8.6 °F -8.9 °F - N/A% 30.15 in 1.0 mi NE 16.1 mph 21.9 mph N/A   Clear
5:52 AM 10.4 °F -6.0 °F - N/A% 30.15 in 1.6 mi ENE 15.0 mph - N/A   Overcast
5:54 AM 10.4 °F -6.0 °F - N/A% 30.16 in 1.4 mi ENE 15.0 mph - N/A   Overcast
6:00 AM 10.4 °F -4.8 °F - N/A% 30.33 in 1.1 mi ENE 12.7 mph - N/A   Clear
6:15 AM 10.4 °F -6.6 °F - N/A% 30.16 in 2.0 mi ENE 16.1 mph - N/A   Clear
6:29 AM 10.4 °F -7.7 °F - N/A% 30.16 in 1.4 mi ENE 18.4 mph - N/A   Clear
6:51 AM 10.4 °F -8.2 °F - N/A% 30.17 in 2.6 mi ENE 19.6 mph - N/A   Clear
6:59 AM 12.2 °F -4.8 °F - N/A% 30.16 in 3.5 mi ENE 17.3 mph 26.5 mph N/A   Clear
7:00 AM 12.2 °F -3.7 °F - N/A% 30.34 in 3.5 mi ENE 15.0 mph 26.5 mph N/A   Clear
7:12 AM 12.2 °F -6.7 °F - N/A% 30.17 in 7.0 mi ENE 21.9 mph - N/A   Scattered Clouds
7:15 AM 12.2 °F -6.3 °F - N/A% 30.17 in 8.0 mi East 20.7 mph - N/A   Mostly Cloudy
7:20 AM 12.2 °F -7.1 °F - N/A% 30.17 in 6.0 mi East 23.0 mph - N/A   Scattered Clouds
7:26 AM 12.2 °F -6.7 °F - N/A% 30.18 in 3.0 mi East 21.9 mph - N/A   Mostly Cloudy
7:31 AM 12.2 °F -7.9 °F - N/A% 30.17 in 1.2 mi East 25.3 mph - N/A   Overcast
7:34 AM 10.4 °F -10.3 °F - N/A% 30.18 in 1.0 mi East 25.3 mph - N/A   Overcast
7:35 AM 10.4 °F -11.0 °F - N/A% 30.18 in 0.6 mi East 27.6 mph - N/A   Overcast
7:46 AM 10.4 °F -11.4 °F - N/A% 30.18 in 0.4 mi East 28.8 mph - N/A   Clear
7:57 AM 10.4 °F -10.7 °F - N/A% 30.19 in 0.8 mi East 26.5 mph - N/A   Clear
8:00 AM 11 °F - - % 30.37 in 1 mi East 25.3 mph - -   Overcast
8:00 AM 10.4 °F -9.1 °F - N/A% 30.37 in 1.1 mi ENE 21.9 mph 31.1 mph N/A   Overcast
8:13 AM 12.2 °F -5.3 °F - N/A% 30.20 in 1.4 mi East 18.4 mph 24.2 mph N/A   Overcast
8:15 AM 12.2 °F -6.3 °F - N/A% 30.20 in 3.0 mi East 20.7 mph - N/A   Overcast
8:18 AM 12.2 °F -7.1 °F - N/A% 30.19 in 3.0 mi East 23.0 mph - N/A   Overcast
8:30 AM 12.2 °F -6.7 °F - N/A% 30.20 in 1.2 mi East 21.9 mph 31.1 mph N/A   Overcast
8:33 AM 10.4 °F -6.6 °F - N/A% 30.21 in 1.0 mi ENE 16.1 mph 31.1 mph N/A   Clear
8:36 AM 12.2 °F -4.8 °F - N/A% 30.22 in 0.6 mi ENE 17.3 mph 26.5 mph N/A   Overcast
8:43 AM 10.4 °F -9.1 °F - N/A% 30.20 in 1.0 mi ENE 21.9 mph - N/A   Overcast
8:55 AM 10.4 °F -7.7 °F - N/A% 30.21 in 1.4 mi ENE 18.4 mph 25.3 mph N/A   Overcast
8:57 AM 10.4 °F -7.7 °F - N/A% 30.21 in 1.4 mi ENE 18.4 mph - N/A   Overcast
8:59 AM 10.4 °F -7.7 °F - N/A% 30.21 in 3.0 mi ENE 18.4 mph - N/A   Overcast
9:00 AM 10.4 °F -7.7 °F - N/A% 30.39 in 3.5 mi ENE 18.4 mph - N/A   Overcast
9:05 AM 10.4 °F -9.1 °F - N/A% 30.21 in 2.6 mi ENE 21.9 mph - N/A   Overcast
9:13 AM 12.2 °F -5.8 °F - N/A% 30.21 in 1.4 mi ENE 19.6 mph 26.5 mph N/A   Overcast
9:26 AM 12.2 °F -6.3 °F - N/A% 30.21 in 3.0 mi ENE 20.7 mph 28.8 mph N/A   Clear
9:35 AM 12.2 °F -7.9 °F - N/A% 30.20 in 1.8 mi East 25.3 mph - N/A   Overcast
9:36 AM 12.2 °F -7.9 °F - N/A% 30.20 in 1.5 mi East 25.3 mph - N/A   Mostly Cloudy
9:37 AM 12.2 °F -8.2 °F - N/A% 30.20 in 1.2 mi East 26.5 mph - N/A   Overcast
9:42 AM 12.2 °F -7.5 °F - N/A% 30.21 in 1.1 mi ENE 24.2 mph - N/A   Scattered Clouds
9:49 AM 10.4 °F -11.7 °F - N/A% 30.19 in 1.4 mi ENE 29.9 mph 35.7 mph N/A   Clear
9:55 AM 10.4 °F -12.3 °F - N/A% 30.20 in 1.0 mi ENE 32.2 mph - N/A   Overcast
10:00 AM 12.2 °F -8.6 °F - N/A% 30.38 in 1.0 mi East 27.6 mph 33.4 mph N/A   Overcast
10:12 AM 12.2 °F -4.8 °F - N/A% 30.22 in 1.2 mi East 17.3 mph 26.5 mph N/A   Overcast
10:17 AM 12.2 °F -3.1 °F - N/A% 30.22 in 3.0 mi ENE 13.8 mph 20.7 mph N/A   Overcast
10:20 AM 12.2 °F -3.1 °F - N/A% 30.22 in 6.0 mi ENE 13.8 mph 20.7 mph N/A   Clear
11:00 AM 12 °F - - % 30.39 in 3 mi ENE 16.1 mph - -  
11:00 AM 12.2 °F -4.8 °F - N/A% 30.39 in 2.8 mi ENE 17.3 mph 25.3 mph N/A   Clear
11:08 AM 12.2 °F -6.7 °F - N/A% 30.21 in 1.1 mi ENE 21.9 mph - N/A   Mostly Cloudy
11:12 AM 12.2 °F -6.3 °F - N/A% 30.21 in 1.0 mi ENE 20.7 mph - N/A   Clear
11:17 AM 12.2 °F -3.1 °F - N/A% 30.21 in 0.6 mi ENE 13.8 mph 24.2 mph N/A   Clear
11:43 AM 12.2 °F -7.9 °F - N/A% 30.20 in 0.4 mi East 25.3 mph - N/A   Overcast
11:53 AM 12.2 °F -7.9 °F - N/A% 30.20 in 0.4 mi East 25.3 mph - N/A   Partly Cloudy
11:59 AM 12.2 °F -8.2 °F - N/A% 30.20 in 0.6 mi East 26.5 mph - N/A   Partly Cloudy
12:00 PM 12.2 °F -7.9 °F - N/A% 30.38 in 0.6 mi East 25.3 mph - N/A   Partly Cloudy
12:04 PM 12.2 °F -7.9 °F - N/A% 30.20 in 0.4 mi East 25.3 mph - N/A   Mostly Cloudy
12:30 PM 12.2 °F -9.3 °F - N/A% 30.20 in 0.4 mi East 29.9 mph - N/A   Partly Cloudy
12:43 PM 12.2 °F -9.6 °F - N/A% 30.20 in 0.5 mi East 31.1 mph - N/A   Partly Cloudy
12:45 PM 12.2 °F -8.9 °F - N/A% 30.20 in 0.4 mi East 28.8 mph 35.7 mph N/A   Partly Cloudy
12:56 PM 12.2 °F -9.3 °F - N/A% 30.19 in 0.2 mi East 29.9 mph - N/A   Mostly Cloudy
1:00 PM 12.2 °F -9.3 °F - N/A% 30.37 in 0.2 mi East 29.9 mph - N/A   Clear
1:20 PM 12.2 °F -9.6 °F - N/A% 30.20 in 0.4 mi East 31.1 mph - N/A   Mostly Cloudy
1:25 PM 12.2 °F -8.9 °F - N/A% 30.21 in 0.4 mi East 28.8 mph - N/A   Scattered Clouds
1:29 PM 12.2 °F -8.6 °F - N/A% 30.21 in 0.5 mi East 27.6 mph - N/A   Scattered Clouds
2:00 PM 13 °F - - % 30.40 in 1 mi East 26.5 mph - -  
2:00 PM 14.0 °F -5.5 °F - N/A% 30.40 in 0.6 mi East 25.3 mph - N/A   Clear
2:04 PM 14.0 °F -5.1 °F - N/A% 30.23 in 1.0 mi East 24.2 mph 29.9 mph N/A   Clear
2:16 PM 14.0 °F -5.1 °F - N/A% 30.23 in 2.5 mi East 24.2 mph - N/A   Clear
2:40 PM 14.0 °F -6.5 °F - N/A% 30.22 in 1.4 mi East 28.8 mph - N/A   Clear
3:00 PM 14.0 °F -5.5 °F - N/A% 30.41 in 1.5 mi East 25.3 mph 31.1 mph N/A   Scattered Clouds
3:03 PM 14.0 °F -5.8 °F - N/A% 30.23 in 1.4 mi East 26.5 mph - N/A   Scattered Clouds
3:24 PM 14.0 °F -6.2 °F - N/A% 30.23 in 1.0 mi East 27.6 mph 33.4 mph N/A   Clear
3:29 PM 12.2 °F -9.3 °F - N/A% 30.23 in 0.6 mi East 29.9 mph - N/A   Clear
4:00 PM 12.2 °F -9.9 °F - N/A% 30.42 in 0.5 mi East 32.2 mph - N/A   Clear
4:27 PM 12.2 °F -8.2 °F - N/A% 30.24 in 1.0 mi East 26.5 mph - N/A   Clear
4:39 PM 14.0 °F -6.2 °F - N/A% 30.24 in 2.1 mi East 27.6 mph 33.4 mph N/A   Clear
4:57 PM 12.2 °F -9.6 °F - N/A% 30.24 in 1.4 mi East 31.1 mph - N/A   Clear
5:00 PM 13 °F - - % 30.42 in 1 mi East 28.8 mph - -  
5:00 PM 12.2 °F -8.9 °F - N/A% 30.42 in 1.2 mi East 28.8 mph - N/A   Clear
5:36 PM 12.2 °F -8.9 °F - N/A% 30.25 in 2.0 mi East 28.8 mph - N/A   Clear
5:56 PM 12.2 °F -8.2 °F - N/A% 30.25 in 1.4 mi East 26.5 mph 32.2 mph N/A   Clear
6:00 PM 12.2 °F -8.6 °F - N/A% 30.43 in 1.4 mi East 27.6 mph - N/A   Clear
6:18 PM 12.2 °F -8.6 °F - N/A% 30.25 in 1.5 mi East 27.6 mph - N/A   Clear
6:24 PM 12.2 °F -9.3 °F - N/A% 30.25 in 1.4 mi East 29.9 mph - N/A   Clear
6:40 PM 12.2 °F -8.2 °F - N/A% 30.25 in 3.0 mi East 26.5 mph - N/A   Clear
6:43 PM 12.2 °F -9.6 °F - N/A% 30.25 in 2.8 mi East 31.1 mph - N/A   Clear
6:59 PM 12.2 °F -8.2 °F - N/A% 30.26 in 3.0 mi East 26.5 mph - N/A   Clear
7:00 PM 12.2 °F -7.9 °F - N/A% 30.44 in 3.0 mi East 25.3 mph - N/A   Clear
7:04 PM 12.2 °F -7.1 °F - N/A% 30.26 in 3.0 mi East 23.0 mph 29.9 mph N/A   Clear
8:00 PM 11 °F - - % 30.44 in 3 mi East 24.2 mph - -  
8:00 PM 12.2 °F -7.1 °F - N/A% 30.44 in 3.0 mi East 23.0 mph - N/A   Clear
8:10 PM 12.2 °F -7.5 °F - N/A% 30.27 in 3.5 mi East 24.2 mph - N/A   Clear
8:38 PM 12.2 °F -8.2 °F - N/A% 30.26 in 2.8 mi East 26.5 mph - N/A   Clear
9:00 PM 10.4 °F -11.0 °F - N/A% 30.44 in 2.0 mi East 27.6 mph - N/A   Clear
9:37 PM 12.2 °F -7.9 °F - N/A% 30.26 in 3.0 mi East 25.3 mph - N/A   Clear
10:00 PM 12.2 °F -7.5 °F - N/A% 30.45 in 9.0 mi ENE 24.2 mph 31.1 mph N/A   Clear
11:00 PM 10 °F - - % 30.46 in 9 mi ENE 21.9 mph - -  
11:00 PM 10.4 °F -9.1 °F - N/A% 30.46 in 9.0 mi ENE 21.9 mph - N/A   Clear
11:21 PM 10.4 °F -6.6 °F - N/A% 30.28 in 9.0 mi ENE 16.1 mph 23.0 mph N/A   Clear
11:49 PM 10.4 °F -9.1 °F - N/A% 30.27 in 6.0 mi East 21.9 mph - N/A   Clear